Mumbai, India

11:48 AM IST on October 19, 2017 (GMT +0530)
Chhatrapati Shivaji International

Weather History for VABB - November, 2012

Change the Weather History Date:

Thursday, November 1, 2012

  Actual Average Record
Temperature  
Mean Temperature 80 °F -  
Max Temperature 93 °F 90 °F 97 °F (2015)
Min Temperature 66 °F 72 °F 66 °F (2012)
Cooling Degree Days 14    
Growing Degree Days 30 (Base 50)    
Moisture  
Dew Point 61 °F    
Average Humidity 48    
Maximum Humidity 80    
Minimum Humidity 22    
Precipitation  
Precipitation 0.00 in - - ()
Sea Level Pressure  
Sea Level Pressure 29.75 in    
Wind  
Wind Speed 4 mph ()    
Max Wind Speed 14 mph    
Max Gust Speed -    
Visibility 1.8 miles    
Events      
Averages and records for this station are not official NWS values.
T = Trace of Precipitation, MM = Missing Value Source: Averaged Metar Reports

Daily Weather History Graph

Daily Weather History Graph

Search for Another Location

Airport or City:

Trip Planner

Search our weather history database for the weather conditions in past years. The results will help you decide how hot, cold, wet, or windy it might be!

Date:

Astronomy

Nov. 01, 2012 Rise Set
Actual Time 6:39 AM IST 6:04 PM IST
Civil Twilight 6:16 AM IST 6:27 PM IST
Nautical Twilight 5:50 AM IST 6:53 PM IST
Astronomical Twilight 5:24 AM IST 7:19 PM IST
Moon 7:56 PM IST (11/1) 8:33 AM IST (11/1)
Length of Visible Light 12h 11m
Length of Day
11h 25m
Waning Gibbous, 95% of the Moon is Illuminated
Nov 1
Waning Gibbous
Nov 7
Last Quarter
Nov 14
New
Nov 20
First Quarter
Nov 28
Full

Hourly Weather History & Observations

Time (IST) Temp. Heat Index Dew Point Humidity Pressure Visibility Wind Dir Wind Speed Gust Speed Precip Events Conditions
12:40 AM 80.6 °F 81.1 °F 59.0 °F 48% 29.77 in 1.9 mi SE 5.8 mph - N/A   Smoke
1:10 AM 78.8 °F - 62.6 °F 57% 29.77 in 1.9 mi Calm Calm - N/A   Smoke
1:40 AM 78.8 °F - 60.8 °F 54% 29.77 in 1.9 mi ENE 4.6 mph - N/A   Smoke
2:10 AM 80.6 °F 80.8 °F 57.2 °F 45% 29.77 in 1.9 mi ENE 4.6 mph - N/A   Smoke
2:30 AM 68 °F - 63 °F 80% 29.76 in 1 mi Calm Calm - -   Haze
2:40 AM 77.0 °F - 60.8 °F 57% 29.74 in 1.9 mi East 3.5 mph - N/A   Smoke
3:10 AM 78.8 °F - 57.2 °F 47% 29.74 in 1.9 mi ENE 4.6 mph - N/A   Smoke
3:40 AM 77.0 °F - 59.0 °F 54% 29.74 in 1.9 mi East 6.9 mph - N/A   Smoke
4:10 AM 77.0 °F - 57.2 °F 50% 29.74 in 1.9 mi East 6.9 mph - N/A   Smoke
4:40 AM 77.0 °F - 55.4 °F 47% 29.74 in 1.9 mi East 4.6 mph - N/A   Smoke
5:10 AM 77.0 °F - 57.2 °F 50% 29.74 in 1.6 mi ESE 6.9 mph - N/A   Smoke
5:30 AM 69 °F - 61 °F 70% 29.75 in 1 mi Calm Calm - -   Haze
5:40 AM 77.0 °F - 57.2 °F 50% 29.74 in 1.6 mi East 4.6 mph - N/A   Smoke
6:10 AM 77.0 °F - 55.4 °F 47% 29.74 in 1.7 mi Calm Calm - N/A   Smoke
6:40 AM 77.0 °F - 55.4 °F 47% 29.77 in 1.7 mi Calm Calm - N/A   Smoke
7:10 AM 78.8 °F - 53.6 °F 42% 29.77 in 1.6 mi ENE 4.6 mph - N/A   Smoke
7:40 AM 78.8 °F - 55.4 °F 44% 29.77 in 1.5 mi East 3.5 mph - N/A   Smoke
8:10 AM 78.8 °F - 57.2 °F 47% 29.80 in 1.1 mi SSE 4.6 mph - N/A   Smoke
8:30 AM 73 °F - 67 °F 76% 29.80 in 1 mi Calm Calm - -   Haze
9:10 AM 84.2 °F 83.0 °F 55.4 °F 37% 29.80 in 1.6 mi NE 4.6 mph - N/A   Smoke
10:10 AM 84.2 °F 82.8 °F 53.6 °F 35% 29.80 in 1.9 mi NE 5.8 mph - N/A   Smoke
10:40 AM 86.0 °F 84.5 °F 55.4 °F 35% 29.80 in 1.7 mi NNE 8.1 mph - N/A   Smoke
11:10 AM 86.0 °F 84.5 °F 55.4 °F 35% 29.80 in 1.7 mi North 6.9 mph - N/A   Smoke
11:30 AM 86 °F - 60 °F 31% 29.79 in 1 mi Calm Calm - -   Smoke
11:40 AM 86.0 °F 84.5 °F 55.4 °F 35% 29.77 in 1.7 mi North 5.8 mph - N/A   Smoke
12:40 PM 89.6 °F 87.3 °F 53.6 °F 29% 29.74 in 1.9 mi NNW 5.8 mph - N/A   Smoke
1:10 PM 89.6 °F 87.7 °F 55.4 °F 31% 29.74 in 1.9 mi Variable 3.5 mph - N/A   Smoke
1:40 PM 91.4 °F 89.4 °F 55.4 °F 29% 29.71 in 2.2 mi Variable 3.5 mph - N/A   Smoke
2:10 PM 91.4 °F 89.1 °F 53.6 °F 28% 29.71 in 2.2 mi East 3.5 mph - N/A   Smoke
2:30 PM 92 °F - 58 °F 22% 29.72 in 1 mi NE 3.5 mph - -   Scattered Clouds
2:40 PM 91.4 °F 89.4 °F 55.4 °F 29% 29.71 in 2.2 mi Variable 3.5 mph - N/A   Smoke
3:10 PM 91.4 °F 93.2 °F 64.4 °F 41% 29.71 in 2.2 mi WSW 10.4 mph - N/A   Smoke
3:40 PM 89.6 °F 92.2 °F 66.2 °F 46% 29.71 in 2.2 mi West 11.5 mph - N/A   Smoke
4:10 PM 87.8 °F 89.4 °F 64.4 °F 46% 29.71 in 2.5 mi West 13.8 mph - N/A   Smoke
4:40 PM 87.8 °F 90.4 °F 66.2 °F 49% 29.71 in 2.8 mi WNW 10.4 mph - N/A   Smoke
5:30 PM 86 °F - 67 °F 43% 29.72 in 1 mi North 4.6 mph - -   Smoke
5:40 PM 86.0 °F 89.4 °F 68.0 °F 55% 29.71 in 3.1 mi NNW 6.9 mph - N/A   Smoke
6:10 PM 86.0 °F 88.2 °F 66.2 °F 51% 29.74 in 2.5 mi NNW 10.4 mph - N/A   Smoke
6:40 PM 84.2 °F 87.3 °F 68.0 °F 58% 29.74 in 2.5 mi NW 8.1 mph - N/A   Smoke
7:10 PM 84.2 °F 86.6 °F 66.2 °F 55% 29.74 in 2.2 mi NNW 8.1 mph - N/A   Smoke
7:40 PM 84.2 °F 86.6 °F 66.2 °F 55% 29.74 in 2.2 mi North 9.2 mph - N/A   Smoke
8:10 PM 84.2 °F 86.6 °F 66.2 °F 55% 29.74 in 2.2 mi NNE 8.1 mph - N/A   Smoke
8:30 PM 83 °F - 66 °F 47% 29.75 in 1 mi North 3.5 mph - -   Smoke
8:40 PM 84.2 °F 85.6 °F 64.4 °F 51% 29.77 in 2.2 mi North 8.1 mph - N/A   Smoke
9:10 PM 84.2 °F 85.0 °F 62.6 °F 48% 29.77 in 2.2 mi Calm Calm - N/A   Smoke
9:40 PM 84.2 °F 85.6 °F 64.4 °F 51% 29.77 in 2.2 mi SE 6.9 mph - N/A   Smoke
10:10 PM 84.2 °F 86.6 °F 66.2 °F 55% 29.77 in 2.2 mi ESE 5.8 mph - N/A   Smoke
11:10 PM 82.4 °F 84.6 °F 66.2 °F 58% 29.74 in 1.9 mi Calm Calm - N/A   Smoke
11:30 PM 76 °F - 68 °F 69% 29.76 in 1 mi Calm Calm - -   Haze
11:40 PM 82.4 °F 84.6 °F 66.2 °F 58% 29.74 in 1.9 mi Calm Calm - N/A   Smoke